[[{"header":{"parameterUnit":"m.s-1","parameterCategory":1,"la1":30.2991,"la2":30.254,"lo1":-89.0895,"lo2":-89.0444,"dy":0.0017,"dx":0.0017,"nx":28,"ny":28,"refTime":"2024-04-01T21:00:00:Z","depth":0,"parameterNumber":2,"parameterNumberName":"U-component_of_WINDS"},"data":[0,0,0,0,0,0,0,0,0,0,0,0,0,0,0,0,0,0,0,0,0,0,0,0,0,0,0,0,0,0,0,0,0,0,0,0,0,0,0,0,0,0,0,0,0,0,0,0,0,0,0,0,0,0,0,0,0,0,5.6562,5.6563,0,5.663,5.6631,5.6632,5.6583,5.6581,5.6578,5.6576,5.6643,5.6647,5.6651,0,0,0,0,0,0,0,0,0,0,0,0,0,5.6389,5.6393,5.6562,5.6563,5.6564,5.663,5.6631,5.6632,5.6583,5.658,5.6578,5.6575,5.6642,5.6646,5.6651,0,0,0,0,0,0,0,0,0,0,0,0,0,5.6461,5.6394,5.6562,5.6548,5.6547,5.663,5.6631,5.6632,5.6584,5.658,5.6577,5.6574,5.664,5.6646,5.6652,5.6752,0,0,5.6669,5.6671,0,0,0,0,0,0,0,0,5.6457,5.6468,5.6549,5.6549,5.6548,5.6595,5.6594,5.6672,5.6585,5.657,5.6576,5.6573,5.663,5.6636,5.6656,5.6755,5.6758,5.667,5.6673,5.6675,5.6677,0,0,0,0,0,0,0,5.6452,5.6465,5.6589,5.655,5.655,5.6537,5.6544,5.6609,5.6617,5.6571,5.6567,5.6576,5.6629,5.665,5.6657,5.6759,5.6669,5.6674,5.6678,5.668,5.6946,5.695,0,0,0,0,0,0,5.6449,5.6461,5.6587,5.6591,5.6494,5.6543,5.6551,5.6583,5.6616,5.6618,5.6579,5.6574,5.6642,5.665,5.6659,5.678,5.6675,5.6681,5.6684,5.6943,5.6947,5.6951,0,0,0,0,0,0,5.6445,5.6461,5.6584,5.6525,5.654,5.655,5.6586,5.6586,5.6608,5.6622,5.6623,5.66,5.664,5.6651,5.673,5.6782,5.6683,5.6688,5.6938,5.6944,5.6949,5.7022,0,0,0,0,0,0,5.6441,5.646,5.6498,5.6526,5.6543,5.6654,5.659,5.659,5.6618,5.6612,5.6642,5.6644,5.6638,5.6722,5.6736,5.6788,5.6693,5.6934,5.6941,5.6947,5.7015,5.703,5.7042,0,0,0,0,0,5.6435,5.6514,5.65,5.6515,5.6591,5.6657,5.6667,5.6659,5.6622,5.6661,5.6671,5.6643,5.6774,5.673,5.6745,5.68,5.693,5.6939,5.6947,5.7009,5.7027,5.7042,0,0,0,0,0,0,5.649,5.6518,5.6502,5.6593,5.6624,5.6649,5.6697,5.6678,5.6718,5.6711,5.6699,5.6706,5.679,5.6803,5.6753,5.69,5.6846,5.6858,5.6889,5.6905,5.6918,5.6913,5.6698,0,0,0,0,0,5.6513,5.6565,5.6586,5.6665,5.6681,5.6687,5.6715,5.6707,5.6737,5.675,5.6765,5.6795,5.6843,5.6875,5.692,5.7017,5.7024,5.7063,5.7076,5.7087,5.7097,5.7152,5.717,5.6978,5.6978,5.6978,0,0,5.656,5.6582,5.6615,5.6676,5.6699,5.6753,5.6697,5.6756,5.6796,5.6758,5.6834,5.6847,5.688,5.6969,5.7009,5.6983,5.7152,5.7097,5.7106,5.711,5.7162,5.718,5.7196,5.6984,5.6983,5.6982,0,0,5.6675,5.6696,5.6765,5.679,5.6825,5.6829,5.6846,5.6875,5.6883,5.6959,5.6932,5.698,5.7062,5.7088,5.7111,5.724,5.7216,5.7255,5.7324,5.7377,5.7393,5.7406,5.7453,5.747,5.7265,5.7265,5.7265,0,5.6729,5.681,5.6802,5.6865,5.6893,5.6863,5.6934,5.6957,5.7005,5.7026,5.6995,5.7101,5.712,5.7217,5.7248,5.7268,5.7287,5.7251,5.7391,5.7404,5.7417,5.7462,5.7479,5.7269,5.7269,5.7268,5.7268,0,5.6876,5.6933,5.6984,5.7034,5.7068,5.7134,5.7137,5.7172,5.7162,5.717,5.7249,5.7273,5.7323,5.7345,5.7335,5.7441,5.7423,5.7393,5.7338,5.744,5.7482,5.7499,5.7276,5.7274,5.7273,5.7272,0,0,5.7025,5.7072,5.7091,5.7114,5.7153,5.7196,5.7262,5.7313,5.7344,5.7379,5.7434,5.7506,5.7479,5.7506,5.7499,5.7546,5.7649,5.751,5.751,5.7536,5.7768,5.7792,5.7812,5.7634,5.7637,5.7639,5.7766,0,5.7142,5.7257,5.7254,5.7361,5.7414,5.7388,5.7445,5.7475,5.7485,5.7531,5.7541,5.7593,5.7552,5.7569,5.7615,5.7626,5.7695,5.7617,5.7685,5.7687,5.7678,5.7833,5.7858,5.7976,5.7782,5.7785,5.7787,0,5.7294,5.7337,5.745,5.7483,5.7505,5.7557,5.7605,5.7649,5.7684,5.7687,5.772,5.7706,5.7773,5.7717,5.781,5.7757,5.7785,5.7795,5.78,5.7806,5.7743,5.7844,5.8013,5.8032,5.7813,5.781,5.7809,0,5.7393,5.7478,5.7558,5.7578,5.7619,5.7656,5.7675,5.7706,5.7738,5.7779,5.78,5.7849,5.7875,5.7913,5.7914,5.7873,5.8008,5.7952,5.8013,5.8014,5.8043,5.8041,5.8219,5.806,5.806,5.8059,5.8059,0,5.7525,5.7595,5.7603,5.7652,5.7731,5.7727,5.7805,5.7819,5.7848,5.79,5.788,5.7928,5.7925,5.7975,5.7975,5.8053,5.8065,5.807,5.8069,5.8072,5.8072,5.809,5.8082,5.8064,5.8063,5.8062,5.8061,0,5.7649,5.7657,5.7742,5.7774,5.7784,5.7841,5.7869,5.7916,5.7924,5.799,5.8005,5.8018,5.8076,5.808,5.8146,5.8147,5.8241,5.8231,5.823,5.8229,5.829,5.8285,5.8487,5.8514,5.8337,5.8338,5.834,0,5.7732,5.7786,5.7826,5.786,5.7881,5.7935,5.7969,5.7968,5.8003,5.8048,5.809,5.8146,5.819,5.8284,5.8299,5.835,5.8342,5.8409,5.8349,5.8351,5.8344,5.8341,5.8347,5.8421,5.8423,5.8424,5.8426,0,5.7881,5.7883,5.7932,5.7984,5.8024,5.8065,5.8102,5.8131,5.8134,5.8175,5.8235,5.827,5.8339,5.8395,5.8446,5.8465,5.8447,5.8445,5.8462,5.8465,5.8463,5.8466,5.8263,5.844,5.8438,5.8437,5.8437,5.8436,5.7988,5.8035,5.8072,5.8128,5.8157,5.8193,5.8239,5.8255,5.8305,5.8362,5.8358,5.8425,5.846,5.8526,5.855,5.8602,5.8579,5.8603,5.8609,5.8616,5.8623,5.8455,5.8611,5.861,5.861,5.861,5.8609,0,5.8136,5.8159,5.8211,5.8265,5.831,5.829,5.8332,5.837,5.8429,5.8464,5.851,5.8579,5.8635,5.8656,5.871,5.8748,5.8741,5.8762,5.8759,5.8765,5.8639,5.862,5.8767,5.8767,5.8767,5.8767,5.8767,5.8767,5.8218,5.8299,5.8306,5.8401,5.8423,5.8489,5.8515,5.8549,5.8577,5.8656,5.8703,5.8717,5.8747,5.8803,5.8854,5.8859,5.888,5.8905,5.8906,5.8789,5.8773,5.8758,5.8739,5.891,5.891,5.9027,5.9028,5.9029]},{"header":{"parameterUnit":"m.s-1","parameterCategory":1,"la1":30.2991,"la2":30.254,"lo1":-89.0895,"lo2":-89.0444,"dy":0.0017,"dx":0.0017,"nx":28,"ny":28,"refTime":"2024-04-01T21:00:00:Z","depth":0,"parameterNumber":3,"parameterNumberName":"V-component_of_WINDS"},"data":[0,0,0,0,0,0,0,0,0,0,0,0,0,0,0,0,0,0,0,0,0,0,0,0,0,0,0,0,0,0,0,0,0,0,0,0,0,0,0,0,0,0,0,0,0,0,0,0,0,0,0,0,0,0,0,0,0,0,-7.2607,-7.2609,0,-7.2753,-7.2754,-7.2756,-7.2747,-7.2745,-7.2742,-7.274,-7.2884,-7.2889,-7.2895,0,0,0,0,0,0,0,0,0,0,0,0,0,-7.2318,-7.2323,-7.2607,-7.2609,-7.2611,-7.2752,-7.2754,-7.2756,-7.2747,-7.2744,-7.2742,-7.2739,-7.2882,-7.2889,-7.2896,0,0,0,0,0,0,0,0,0,0,0,0,0,-7.2451,-7.2325,-7.2607,-7.2623,-7.2626,-7.2752,-7.2754,-7.2757,-7.2748,-7.2744,-7.2741,-7.2738,-7.288,-7.2888,-7.2897,-7.3014,0,0,-7.2923,-7.2927,0,0,0,0,0,0,0,0,-7.2444,-7.2462,-7.2619,-7.2622,-7.2626,-7.2728,-7.2705,-7.2843,-7.2748,-7.2701,-7.274,-7.2737,-7.2834,-7.2847,-7.2881,-7.302,-7.3027,-7.2924,-7.2929,-7.2933,-7.2935,0,0,0,0,0,0,0,-7.2434,-7.2456,-7.2664,-7.2621,-7.2625,-7.2622,-7.2638,-7.2731,-7.2784,-7.2705,-7.2705,-7.2723,-7.2836,-7.2872,-7.2884,-7.3029,-7.2924,-7.2931,-7.2937,-7.294,-7.3275,-7.3278,0,0,0,0,0,0,-7.2422,-7.2448,-7.266,-7.2669,-7.2525,-7.263,-7.2647,-7.2699,-7.2783,-7.2793,-7.2725,-7.2722,-7.2859,-7.2874,-7.2889,-7.3033,-7.2933,-7.2941,-7.2946,-7.3271,-7.3276,-7.3279,0,0,0,0,0,0,-7.2416,-7.2441,-7.2654,-7.2558,-7.2585,-7.2639,-7.2696,-7.2703,-7.274,-7.2798,-7.2807,-7.2753,-7.2857,-7.2877,-7.2984,-7.3038,-7.2945,-7.2953,-7.3267,-7.3272,-7.3278,-7.3322,0,0,0,0,0,0,-7.2408,-7.2439,-7.2484,-7.256,-7.259,-7.2747,-7.2699,-7.2708,-7.2756,-7.2752,-7.2827,-7.2836,-7.2856,-7.2971,-7.2993,-7.3048,-7.296,-7.3262,-7.3269,-7.3276,-7.3316,-7.3328,-7.3339,0,0,0,0,0,-7.2397,-7.2489,-7.2487,-7.2512,-7.2649,-7.2751,-7.2768,-7.2791,-7.276,-7.2806,-7.2844,-7.2833,-7.3029,-7.2982,-7.3006,-7.3065,-7.3259,-7.3267,-7.3275,-7.331,-7.3326,-7.3339,0,0,0,0,0,0,-7.2416,-7.2499,-7.2497,-7.2617,-7.2677,-7.2749,-7.2807,-7.2806,-7.2875,-7.2869,-7.2893,-7.291,-7.3018,-7.3052,-7.2999,-7.3185,-7.314,-7.3153,-7.3158,-7.3173,-7.3184,-7.3174,-7.2967,0,0,0,0,0,-7.2435,-7.2512,-7.258,-7.2678,-7.2709,-7.2753,-7.2798,-7.2812,-7.2874,-7.2899,-7.2944,-7.3004,-7.3079,-7.3128,-7.32,-7.3321,-7.3337,-7.3374,-7.3385,-7.3395,-7.3406,-7.3474,-7.3491,-7.3307,-7.3307,-7.3306,0,0,-7.2473,-7.2528,-7.2574,-7.2684,-7.2732,-7.2811,-7.2774,-7.2858,-7.2917,-7.2911,-7.3016,-7.3052,-7.312,-7.3235,-7.3288,-7.3267,-7.3461,-7.3405,-7.3412,-7.3418,-7.3484,-7.3502,-7.3517,-7.3312,-7.3311,-7.331,0,0,-7.2583,-7.2632,-7.2721,-7.2771,-7.2846,-7.2875,-7.2896,-7.297,-7.2994,-7.31,-7.3098,-7.3167,-7.3296,-7.3346,-7.3388,-7.3521,-7.3514,-7.3543,-7.3603,-7.367,-7.3684,-7.3697,-7.3745,-7.3762,-7.3554,-7.3554,-7.3554,0,-7.262,-7.274,-7.2765,-7.2852,-7.29,-7.2902,-7.2992,-7.3039,-7.3132,-7.3165,-7.3141,-7.3305,-7.3351,-7.3479,-7.3512,-7.3545,-7.357,-7.3534,-7.368,-7.3694,-7.3706,-7.3752,-7.377,-7.3557,-7.3557,-7.3557,-7.3557,0,-7.2783,-7.2866,-7.2928,-7.3022,-7.3078,-7.3165,-7.3204,-7.3257,-7.3266,-7.3298,-7.3407,-7.3463,-7.3548,-7.3579,-7.3588,-7.3709,-7.3694,-7.3675,-7.363,-7.3726,-7.3771,-7.3788,-7.3562,-7.3561,-7.356,-7.3559,0,0,-7.2906,-7.3016,-7.3038,-7.3082,-7.3166,-7.3231,-7.3319,-7.3404,-7.345,-7.3515,-7.359,-7.37,-7.3684,-7.3732,-7.3746,-7.3805,-7.3908,-7.3778,-7.378,-7.3801,-7.4047,-7.4061,-7.4082,-7.3905,-7.3908,-7.3911,-7.4042,0,-7.3025,-7.3183,-7.3211,-7.3349,-7.3427,-7.3431,-7.3508,-7.3567,-7.36,-7.3671,-7.3706,-7.3785,-7.3757,-7.3786,-7.3844,-7.3883,-7.3958,-7.3874,-7.3974,-7.3977,-7.3957,-7.4104,-7.4119,-7.424,-7.4059,-7.4062,-7.4064,0,-7.3184,-7.3257,-7.3404,-7.3481,-7.3514,-7.3583,-7.3665,-7.3732,-7.38,-7.382,-7.3876,-7.3885,-7.3976,-7.3928,-7.4055,-7.3997,-7.404,-7.4066,-7.4071,-7.4081,-7.4026,-7.4119,-7.4278,-7.4297,-7.4091,-7.4089,-7.4087,0,-7.3261,-7.3395,-7.3501,-7.3539,-7.363,-7.3679,-7.3719,-7.3784,-7.3835,-7.3906,-7.3939,-7.4019,-7.4063,-7.4125,-7.4154,-7.4117,-7.428,-7.4234,-7.4298,-7.4298,-7.4332,-7.4329,-7.4501,-7.4359,-7.4359,-7.4358,-7.4358,0,-7.3391,-7.3481,-7.3538,-7.3603,-7.3704,-7.3735,-7.3833,-7.3872,-7.3931,-7.4003,-7.4011,-7.4078,-7.4114,-7.4187,-7.421,-7.4313,-7.4332,-7.435,-7.4355,-7.435,-7.4348,-7.4378,-7.437,-7.4363,-7.4362,-7.4361,-7.436,0,-7.3493,-7.3535,-7.3651,-7.373,-7.3752,-7.3823,-7.3889,-7.3953,-7.3987,-7.4078,-7.4101,-7.4154,-7.424,-7.4277,-7.4382,-7.4398,-7.4515,-7.4514,-7.4493,-7.4495,-7.4558,-7.4552,-7.4755,-7.4784,-7.4622,-7.4624,-7.4625,0,-7.3574,-7.3643,-7.3731,-7.3781,-7.3824,-7.3904,-7.3957,-7.399,-7.4044,-7.413,-7.4183,-7.427,-7.4341,-7.4479,-7.4526,-7.4607,-7.4608,-7.4674,-7.462,-7.4613,-7.461,-7.4606,-7.4613,-7.4683,-7.4685,-7.4686,-7.4687,0,-7.3712,-7.373,-7.3807,-7.3892,-7.3956,-7.4023,-7.4089,-7.413,-7.4174,-7.4234,-7.4324,-7.438,-7.449,-7.4576,-7.4661,-7.4701,-7.4702,-7.4704,-7.4724,-7.4718,-7.4704,-7.4714,-7.452,-7.4699,-7.4698,-7.4697,-7.4696,-7.4696,-7.3806,-7.387,-7.3942,-7.4028,-7.4082,-7.4145,-7.4209,-7.4252,-7.4329,-7.4422,-7.4437,-7.4533,-7.4602,-7.4716,-7.476,-7.4835,-7.4818,-7.4846,-7.4853,-7.486,-7.4864,-7.4692,-7.485,-7.485,-7.485,-7.485,-7.4849,0,-7.3946,-7.3994,-7.4073,-7.4167,-7.4235,-7.4233,-7.4306,-7.4363,-7.4448,-7.4513,-7.4585,-7.4689,-7.4774,-7.4829,-7.4915,-7.4964,-7.4967,-7.4986,-7.4982,-7.4992,-7.4874,-7.4849,-7.4982,-7.4982,-7.4982,-7.4982,-7.4982,-7.4982,-7.4027,-7.4134,-7.4162,-7.4296,-7.4343,-7.4439,-7.4482,-7.454,-7.4592,-7.4709,-7.4781,-7.4817,-7.4879,-7.4969,-7.5047,-7.5061,-7.5092,-7.5112,-7.5125,-7.5014,-7.5,-7.4987,-7.4963,-7.5119,-7.5119,-7.5237,-7.5238,-7.5239]}]]